Location: Willingham
(52.3167°N, 0.0667°E)
Time: 21:03:40
(UTC+00:00)

COSMOS 2406 - Pass Details

Date: 19 May 2025
Orbit: 845 x 859 km, 71.0° (Epoch: 18 June)

Event Time Altitude Azimuth Distance (km) Brightness Sun altitude
Exits shadow 21:59:07 19° 148° (SSE) 1,917 4.4 -13.3°
Maximum altitude 22:01:58 29° 105° (ESE) 1,526 4.2 -13.5°
Drops below altitude 10° 22:06:46 10° 47° (NE) 2,489 5.8 -13.9°
Sets 22:09:31 0° 37° (NE) 3,433 6.8 -14.1°
